Time,TemperatureF,DewpointF,PressureIn,WindDirection,WindDirectionDegrees,WindSpeedMPH,WindSpeedGustMPH,Humidity,HourlyPrecipIn,Conditions,Clouds,dailyrainin,SolarRadiationWatts/m^2,SoftwareType,DateUTC
2013-03-24 00:03:00,75.0,73.0,-100.00,SSE,150,2.0,5.0,94,0.00,,,0.00,0.000000,,2013-03-24 04:03:00,
2013-03-24 00:13:00,75.0,73.0,-100.00,SSE,150,2.0,5.0,94,0.00,,,0.00,0.000000,,2013-03-24 04:13:00,
2013-03-24 00:23:00,75.0,73.0,-100.00,SSE,150,2.0,5.0,94,0.00,,,0.00,0.000000,,2013-03-24 04:23:00,
2013-03-24 00:33:00,75.0,73.0,-100.00,SSE,150,2.0,5.0,94,0.00,,,0.00,0.000000,,2013-03-24 04:33:00,
2013-03-24 01:03:00,75.0,73.0,-100.00,SSE,164,4.0,5.0,94,0.00,,,0.00,0.000000,,2013-03-24 05:03:00,
2013-03-24 01:13:00,75.0,73.0,-100.00,SSE,164,4.0,5.0,94,0.00,,,0.00,0.000000,,2013-03-24 05:13:00,
2013-03-24 01:23:00,75.0,73.0,-100.00,SSE,164,4.0,5.0,94,0.00,,,0.00,0.000000,,2013-03-24 05:23:00,
2013-03-24 01:32:00,75.0,73.0,-100.00,SSE,164,4.0,5.0,94,0.00,,,0.00,0.000000,,2013-03-24 05:32:00,
2013-03-24 02:02:00,75.0,73.0,-100.00,South,185,5.0,7.0,93,0.00,,,0.00,0.000000,,2013-03-24 06:02:00,
2013-03-24 02:12:00,75.0,73.0,-100.00,South,185,5.0,7.0,93,0.00,,,0.00,0.000000,,2013-03-24 06:12:00,
2013-03-24 02:22:00,75.0,73.0,-100.00,South,185,5.0,7.0,93,0.00,,,0.00,0.000000,,2013-03-24 06:22:00,
2013-03-24 02:32:00,75.0,73.0,-100.00,South,185,5.0,7.0,93,0.00,,,0.00,0.000000,,2013-03-24 06:32:00,
2013-03-24 03:02:00,76.0,72.0,-100.00,South,188,7.0,12.0,88,0.00,,,0.00,0.000000,,2013-03-24 07:02:00,
2013-03-24 03:12:00,76.0,72.0,-100.00,South,188,7.0,12.0,88,0.00,,,0.00,0.000000,,2013-03-24 07:12:00,
2013-03-24 03:22:00,76.0,72.0,-100.00,South,188,7.0,12.0,88,0.00,,,0.00,0.000000,,2013-03-24 07:22:00,
2013-03-24 03:32:00,76.0,72.0,-100.00,South,188,7.0,12.0,88,0.00,,,0.00,0.000000,,2013-03-24 07:32:00,
2013-03-24 04:03:00,76.0,72.0,-100.00,South,187,8.0,13.0,88,0.00,,,0.00,0.000000,,2013-03-24 08:03:00,
2013-03-24 04:12:00,76.0,72.0,-100.00,South,187,8.0,13.0,88,0.00,,,0.00,0.000000,,2013-03-24 08:12:00,
2013-03-24 04:22:00,76.0,72.0,-100.00,South,187,8.0,13.0,88,0.00,,,0.00,0.000000,,2013-03-24 08:22:00,
2013-03-24 04:32:00,76.0,72.0,-100.00,South,187,8.0,13.0,88,0.00,,,0.00,0.000000,,2013-03-24 08:32:00,
2013-03-24 05:02:00,76.0,73.0,-100.00,South,184,9.0,13.0,91,0.00,,,0.00,0.000000,,2013-03-24 09:02:00,
2013-03-24 05:12:00,76.0,73.0,-100.00,South,184,9.0,13.0,91,0.00,,,0.00,0.000000,,2013-03-24 09:12:00,
2013-03-24 05:22:00,76.0,73.0,-100.00,South,184,9.0,13.0,91,0.00,,,0.00,0.000000,,2013-03-24 09:22:00,
2013-03-24 05:33:00,76.0,73.0,-100.00,South,184,9.0,13.0,91,0.00,,,0.00,0.000000,,2013-03-24 09:33:00,
2013-03-24 06:03:00,76.0,74.0,-100.00,South,182,8.0,14.0,92,0.00,,,0.00,0.000000,,2013-03-24 10:03:00,
2013-03-24 06:13:00,76.0,74.0,-100.00,South,182,8.0,14.0,92,0.00,,,0.00,0.000000,,2013-03-24 10:13:00,
2013-03-24 06:23:00,76.0,74.0,-100.00,South,182,8.0,14.0,92,0.00,,,0.00,0.000000,,2013-03-24 10:23:00,
2013-03-24 06:33:00,76.0,74.0,-100.00,South,182,8.0,14.0,92,0.00,,,0.00,0.000000,,2013-03-24 10:33:00,
2013-03-24 07:03:00,76.0,73.0,-100.00,South,178,9.0,15.0,91,0.00,,,0.00,0.000000,,2013-03-24 11:03:00,
2013-03-24 07:12:00,76.0,73.0,-100.00,South,178,9.0,15.0,91,0.00,,,0.00,0.000000,,2013-03-24 11:12:00,
2013-03-24 07:22:00,76.0,73.0,-100.00,South,178,9.0,15.0,91,0.00,,,0.00,0.000000,,2013-03-24 11:22:00,
2013-03-24 07:33:00,76.0,73.0,-100.00,South,178,9.0,15.0,91,0.00,,,0.00,0.000000,,2013-03-24 11:33:00,
2013-03-24 08:03:00,76.0,74.0,-100.00,South,178,7.0,16.0,92,0.00,,,0.00,2.000000,,2013-03-24 12:03:00,
2013-03-24 08:13:00,76.0,74.0,-100.00,South,178,7.0,16.0,92,0.00,,,0.00,2.000000,,2013-03-24 12:13:00,
2013-03-24 08:23:00,76.0,74.0,-100.00,South,178,7.0,16.0,92,0.00,,,0.00,2.000000,,2013-03-24 12:23:00,
2013-03-24 08:32:00,76.0,74.0,-100.00,South,178,7.0,16.0,92,0.00,,,0.00,2.000000,,2013-03-24 12:32:00,
2013-03-24 09:02:00,78.0,74.0,-100.00,South,175,11.0,18.0,88,0.00,,,0.00,88.000000,,2013-03-24 13:02:00,
2013-03-24 09:13:00,78.0,74.0,-100.00,South,175,11.0,18.0,88,0.00,,,0.00,88.000000,,2013-03-24 13:13:00,
2013-03-24 09:23:00,78.0,74.0,-100.00,South,175,11.0,18.0,88,0.00,,,0.00,88.000000,,2013-03-24 13:23:00,
2013-03-24 09:32:00,78.0,74.0,-100.00,South,175,11.0,18.0,88,0.00,,,0.00,88.000000,,2013-03-24 13:32:00,
2013-03-24 10:02:00,80.0,74.0,-100.00,South,177,14.0,22.0,83,0.00,,,0.00,269.000000,,2013-03-24 14:02:00,
2013-03-24 10:13:00,80.0,74.0,-100.00,South,177,14.0,22.0,83,0.00,,,0.00,269.000000,,2013-03-24 14:13:00,
2013-03-24 10:22:00,80.0,74.0,-100.00,South,177,14.0,22.0,83,0.00,,,0.00,269.000000,,2013-03-24 14:22:00,
2013-03-24 10:32:00,80.0,74.0,-100.00,South,177,14.0,22.0,83,0.00,,,0.00,269.000000,,2013-03-24 14:32:00,
2013-03-24 11:02:00,82.0,74.0,-100.00,South,185,15.0,26.0,78,0.00,,,0.00,500.000000,,2013-03-24 15:02:00,
2013-03-24 11:13:00,82.0,74.0,-100.00,South,185,15.0,26.0,78,0.00,,,0.00,500.000000,,2013-03-24 15:13:00,
2013-03-24 11:22:00,82.0,74.0,-100.00,South,185,15.0,26.0,78,0.00,,,0.00,500.000000,,2013-03-24 15:22:00,
2013-03-24 11:33:00,82.0,74.0,-100.00,South,185,15.0,26.0,78,0.00,,,0.00,500.000000,,2013-03-24 15:33:00,
2013-03-24 12:03:00,82.0,74.0,-100.00,South,188,16.0,27.0,78,0.00,,,0.00,558.000000,,2013-03-24 16:03:00,
2013-03-24 12:13:00,82.0,74.0,-100.00,South,188,16.0,27.0,78,0.00,,,0.00,558.000000,,2013-03-24 16:13:00,
2013-03-24 12:23:00,82.0,74.0,-100.00,South,188,16.0,27.0,78,0.00,,,0.00,558.000000,,2013-03-24 16:23:00,
2013-03-24 12:33:00,82.0,74.0,-100.00,South,188,16.0,27.0,78,0.00,,,0.00,558.000000,,2013-03-24 16:33:00,
2013-03-24 13:03:00,83.0,74.0,-100.00,South,189,18.0,31.0,75,0.00,,,0.00,806.000000,,2013-03-24 17:03:00,
2013-03-24 13:12:00,83.0,74.0,-100.00,South,189,18.0,31.0,75,0.00,,,0.00,806.000000,,2013-03-24 17:12:00,
2013-03-24 13:23:00,83.0,74.0,-100.00,South,189,18.0,31.0,75,0.00,,,0.00,806.000000,,2013-03-24 17:23:00,
2013-03-24 13:33:00,83.0,74.0,-100.00,South,189,18.0,31.0,75,0.00,,,0.00,806.000000,,2013-03-24 17:33:00,
2013-03-24 14:03:00,84.0,74.0,-100.00,SSW,200,12.0,30.0,72,0.00,,,0.00,824.000000,,2013-03-24 18:03:00,
2013-03-24 14:12:00,84.0,74.0,-100.00,SSW,200,12.0,30.0,72,0.00,,,0.00,824.000000,,2013-03-24 18:12:00,
2013-03-24 14:22:00,84.0,74.0,-100.00,SSW,200,12.0,30.0,72,0.00,,,0.00,824.000000,,2013-03-24 18:22:00,
2013-03-24 14:33:00,84.0,74.0,-100.00,SSW,200,12.0,30.0,72,0.00,,,0.00,824.000000,,2013-03-24 18:33:00,
2013-03-24 15:03:00,86.0,74.0,-100.00,SW,233,9.0,23.0,67,0.00,,,0.00,828.000000,,2013-03-24 19:03:00,
2013-03-24 15:12:00,86.0,74.0,-100.00,SW,233,9.0,23.0,67,0.00,,,0.00,828.000000,,2013-03-24 19:12:00,
2013-03-24 15:23:00,86.0,74.0,-100.00,SW,233,9.0,23.0,67,0.00,,,0.00,828.000000,,2013-03-24 19:23:00,
2013-03-24 15:32:00,86.0,74.0,-100.00,SW,233,9.0,23.0,67,0.00,,,0.00,828.000000,,2013-03-24 19:32:00,
2013-03-24 16:03:00,87.0,71.0,-100.00,SW,223,11.0,22.0,60,0.00,,,0.00,767.000000,,2013-03-24 20:03:00,
2013-03-24 16:12:00,87.0,71.0,-100.00,SW,223,11.0,22.0,60,0.00,,,0.00,767.000000,,2013-03-24 20:12:00,
2013-03-24 16:22:00,87.0,71.0,-100.00,SW,223,11.0,22.0,60,0.00,,,0.00,767.000000,,2013-03-24 20:22:00,
2013-03-24 16:32:00,87.0,71.0,-100.00,SW,223,11.0,22.0,60,0.00,,,0.00,767.000000,,2013-03-24 20:32:00,
2013-03-24 17:03:00,87.0,70.0,-100.00,WSW,248,11.0,21.0,58,0.00,,,0.00,639.000000,,2013-03-24 21:03:00,
2013-03-24 17:12:00,87.0,70.0,-100.00,WSW,248,11.0,21.0,58,0.00,,,0.00,639.000000,,2013-03-24 21:12:00,
2013-03-24 17:22:00,87.0,70.0,-100.00,WSW,248,11.0,21.0,58,0.00,,,0.00,639.000000,,2013-03-24 21:22:00,
2013-03-24 17:33:00,87.0,70.0,-100.00,WSW,248,11.0,21.0,58,0.00,,,0.00,639.000000,,2013-03-24 21:33:00,
2013-03-24 18:03:00,87.0,69.0,-100.00,WSW,249,11.0,24.0,56,0.00,,,0.00,458.000000,,2013-03-24 22:03:00,
2013-03-24 18:13:00,87.0,69.0,-100.00,WSW,249,11.0,24.0,56,0.00,,,0.00,458.000000,,2013-03-24 22:13:00,
2013-03-24 18:23:00,87.0,69.0,-100.00,WSW,249,11.0,24.0,56,0.00,,,0.00,458.000000,,2013-03-24 22:23:00,
2013-03-24 18:33:00,87.0,69.0,-100.00,WSW,249,11.0,24.0,56,0.00,,,0.00,458.000000,,2013-03-24 22:33:00,
2013-03-24 19:03:00,82.0,73.0,-100.00,WNW,298,8.0,22.0,74,0.00,,,0.00,223.000000,,2013-03-24 23:03:00,
2013-03-24 19:12:00,82.0,73.0,-100.00,WNW,298,8.0,22.0,74,0.00,,,0.00,223.000000,,2013-03-24 23:12:00,
2013-03-24 19:23:00,82.0,73.0,-100.00,WNW,298,8.0,22.0,74,0.00,,,0.00,223.000000,,2013-03-24 23:23:00,
2013-03-24 19:32:00,82.0,73.0,-100.00,WNW,298,8.0,22.0,74,0.00,,,0.00,223.000000,,2013-03-24 23:32:00,
2013-03-24 20:02:00,78.0,72.0,-100.00,West,278,5.0,13.0,83,0.00,,,0.00,56.000000,,2013-03-25 00:02:00,
2013-03-24 20:12:00,78.0,72.0,-100.00,West,278,5.0,13.0,83,0.00,,,0.00,56.000000,,2013-03-25 00:12:00,
2013-03-24 20:23:00,78.0,72.0,-100.00,West,278,5.0,13.0,83,0.00,,,0.00,56.000000,,2013-03-25 00:23:00,
2013-03-24 20:32:00,78.0,72.0,-100.00,West,278,5.0,13.0,83,0.00,,,0.00,56.000000,,2013-03-25 00:32:00,
2013-03-24 21:02:00,77.0,72.0,-100.00,WNW,288,4.0,7.0,85,0.00,,,0.00,1.000000,,2013-03-25 01:02:00,
2013-03-24 21:12:00,77.0,72.0,-100.00,WNW,288,4.0,7.0,85,0.00,,,0.00,1.000000,,2013-03-25 01:12:00,
2013-03-24 21:22:00,77.0,72.0,-100.00,WNW,288,4.0,7.0,85,0.00,,,0.00,1.000000,,2013-03-25 01:22:00,
2013-03-24 21:32:00,77.0,72.0,-100.00,WNW,288,4.0,7.0,85,0.00,,,0.00,1.000000,,2013-03-25 01:32:00,
2013-03-24 22:02:00,77.0,73.0,-100.00,West,281,2.0,10.0,87,0.00,,,0.00,0.000000,,2013-03-25 02:02:00,
2013-03-24 22:12:00,77.0,73.0,-100.00,West,281,2.0,10.0,87,0.00,,,0.00,0.000000,,2013-03-25 02:12:00,
2013-03-24 22:23:00,77.0,73.0,-100.00,West,281,2.0,10.0,87,0.00,,,0.00,0.000000,,2013-03-25 02:23:00,
2013-03-24 22:33:00,77.0,73.0,-100.00,West,281,2.0,10.0,87,0.00,,,0.00,0.000000,,2013-03-25 02:33:00,
2013-03-24 23:03:00,76.0,72.0,-100.00,West,279,2.0,7.0,88,0.00,,,0.00,0.000000,,2013-03-25 03:03:00,
2013-03-24 23:13:00,76.0,72.0,-100.00,West,279,2.0,7.0,88,0.00,,,0.00,0.000000,,2013-03-25 03:13:00,
2013-03-24 23:23:00,76.0,72.0,-100.00,West,279,2.0,7.0,88,0.00,,,0.00,0.000000,,2013-03-25 03:23:00,
2013-03-24 23:33:00,76.0,72.0,-100.00,West,279,2.0,7.0,88,0.00,,,0.00,0.000000,,2013-03-25 03:33:00,